RH
95 100 77 100 100 91 43 20 16 18 18 17 17 14 13 12 11 11 9 8 8 7 6 6 6 5 5 5 6 6 7 7 8 9 9 9 10 10 10 10 10 10 11 12 14
65 94 100 91 34 20 18 17 17 19 19 17 15 13 12 12 11 10 9 9 7 6 6 8 7 8 8 8 8 9 9 10 9 8 11 10 10 9 10 11 11 10 11 11 12
100 100 86 20 18 19 20 20 20 19 16 15 14 13 13 12 11 9 10 9 6 6 7 8 10 10 9 9 10 13 13 14 11 10 11 12 12 12 15 17 16 16 17 16 16
98 47 19 20 23 22 22 21 18 16 16 15 14 13 14 11 11 9 11 8 7 9 10 10 12 11 12 12 14 12 12 14 16 15 15 19 22 25 25 25 28 22 24 22 24
40 21 19 25 25 21 19 17 16 18 16 14 14 14 12 11 11 12 8 8 8 10 13 15 14 12 13 16 17 22 22 18 20 23 24 28 32 31 33 36 34 33 31 26 25
31 22 22 24 25 21 17 16 17 17 14 14 14 12 11 12 10 10 9 8 10 12 14 16 17 16 17 19 20 22 22 24 26 28 26 27 30 32 33 32 32 31 28 26 34
23 22 24 24 24 21 19 18 19 17 15 15 11 10 10 10 9 9 9 11 10 15 21 24 26 25 23 23 22 23 22 24 25 28 25 31 36 32 31 30 32 32 31 36 37
18 24 25 27 22 21 18 22 22 18 16 12 11 10 10 10 10 10 11 10 10 16 21 26 34 33 32 33 25 25 26 28 28 30 39 40 35 28 29 30 29 31 36 39 35
24 22 22 25 21 20 21 22 20 19 15 13 12 13 12 11 10 10 10 12 15 17 22 28 42 45 48 41 39 32 35 34 32 38 35 34 24 26 27 27 28 33 39 36 36
29 23 21 26 23 26 23 22 20 17 18 15 14 17 16 14 13 14 12 12 18 18 28 39 39 47 49 63 57 43 42 40 34 29 23 24 23 26 29 29 44 44 38 33 31
46 26 23 26 30 28 23 20 18 16 17 17 16 18 20 19 16 17 16 17 15 21 29 46 42 48 56 69 67 40 30 26 26 24 24 28 33 31 32 51 49 40 35 37 47
43 29 23 31 32 25 23 20 21 19 23 24 27 26 26 25 22 19 21 19 19 20 27 32 43 54 66 70 70 55 49 33 33 27 24 29 38 35 56 56 50 49 53 51 36
50 28 23 31 35 27 24 21 23 23 25 28 29 26 25 25 25 26 25 21 22 24 27 30 43 50 66 70 77 73 73 32 27 26 34 40 47 66 58 49 47 50 59 54 55
47 29 24 34 33 29 26 25 27 25 26 22 25 29 29 27 28 30 25 23 24 27 31 32 42 50 60 84 91 82 79 51 27 31 49 47 54 68 43 50 55 56 51 59 37
60 28 26 37 34 27 26 33 33 31 27 21 27 30 31 31 34 34 29 29 29 30 34 34 40 45 51 88 100 97 70 44 35 39 59 62 59 43 46 81 72 55 64 38 30
79 38 30 43 41 35 44 42 34 29 24 22 25 26 28 38 36 36 32 33 33 33 33 39 42 48 59 80 100 100 86 85 65 52 59 68 60 74 96 97 80 72 61 41 37
75 41 36 43 51 45 50 62 48 32 30 23 26 31 32 41 46 40 36 39 45 41 38 45 48 47 64 82 100 94 83 83 78 71 58 75 77 93 93 93 90 60 44 30 30
70 48 48 34 57 59 60 73 61 32 31 26 34 40 47 40 58 64 46 44 45 43 40 52 53 53 60 78 99 83 91 93 91 90 99 100 89 87 79 92 72 68 60 42 42
90 58 73 36 54 62 61 56 58 40 36 38 40 45 46 54 73 72 53 56 52 49 44 52 48 57 65 74 77 84 89 100 100 97 100 92 80 64 66 98 86 77 68 33 27
91 74 93 39 52 61 59 61 64 63 57 43 44 47 56 69 77 68 57 60 56 54 47 44 50 60 67 69 68 80 84 93 95 94 92 73 61 64 81 56 74 71 49 30 33
94 93 91 46 48 60 70 63 63 56 54 54 63 76 75 86 76 67 66 65 63 57 51 50 49 66 70 59 70 86 89 94 100 100 78 68 61 51 48 46 71 76 35 28 32
100 100 83 53 56 58 68 67 58 60 79 80 73 78 83 100 100 94 92 76 72 73 62 54 50 61 65 59 70 85 90 94 97 96 83 95 76 40 63 49 83 54 46 28 36
100 87 73 62 65 54 65 67 59 74 92 75 89 100 100 100 100 100 99 94 88 83 73 53 50 59 66 64 89 84 85 90 82 96 100 100 77 46 52 59 53 31 29 28 41
100 91 79 68 71 71 65 72 86 89 78 78 93 100 87 82 84 93 91 80 79 87 80 58 50 50 55 59 68 66 83 83 82 98 98 86 64 47 45 39 34 42 29 27 31
100 99 94 91 91 93 99 100 100 99 100 92 89 85 89 88 100 100 79 68 62 71 86 64 54 52 57 64 69 68 72 82 97 93 89 69 49 47 33 36 52 46 37 34 40
100 100 100 100 100 100 100 100 100 98 100 100 96 85 72 100 100 97 76 70 61 66 84 70 56 61 68 80 73 77 71 87 95 79 78 56 34 41 40 53 51 55 39 52 50
100 100 100 100 100 100 100 100 100 100 100 96 87 77 90 100 98 90 88 86 60 75 86 74 57 59 74 85 74 79 73 73 90 77 61 42 44 32 43 62 56 45 42 46 43
Wind_Speed
17 14 18 10 13 13 9 8 9 7 4 4 1 3 5 10 14 16 14 18 20 23 23 26 26 25 22 21 22 25 22 22 20 17 18 20 21 20 21 20 23 27 30 32 36
22 20 16 16 12 10 10 10 9 5 4 3 1 3 8 12 14 15 16 15 20 25 25 20 18 16 16 17 14 10 9 9 6 9 13 11 10 11 17 20 17 20 25 30 36
18 21 19 15 13 14 11 9 7 4 6 3 2 6 11 12 13 15 13 16 21 24 27 23 21 14 11 7 6 14 20 27 16 19 19 22 27 19 24 30 30 29 33 33 37
25 23 18 19 19 14 11 10 7 5 3 3 4 7 10 13 14 12 14 15 22 26 29 32 26 25 19 15 23 25 37 32 39 35 29 32 33 30 34 35 35 37 39 43 45
24 21 20 23 17 11 10 9 6 5 4 5 5 8 11 12 11 12 13 18 22 29 29 32 32 33 30 33 29 37 36 34 31 30 28 32 30 35 38 40 44 48 50 53 57
24 22 24 21 17 12 11 6 6 5 5 4 7 8 8 11 13 14 15 18 25 29 32 33 35 33 34 27 28 29 28 29 29 29 33 37 35 37 38 46 48 53 54 57 66
24 25 23 19 17 13 10 7 6 5 7 10 10 10 12 16 16 17 19 22 27 31 34 35 35 33 32 27 23 23 27 29 29 32 36 39 41 44 46 48 51 56 65 65 70
25 25 24 20 15 12 9 7 6 7 11 14 12 14 14 11 14 17 22 24 29 34 35 36 33 30 28 30 28 25 28 31 31 31 35 40 44 44 45 47 56 61 67 71 75
26 24 23 19 15 13 12 7 9 11 13 15 13 11 10 10 13 19 23 26 29 32 35 36 33 32 29 33 34 32 31 31 31 35 39 40 41 42 45 51 57 64 69 75 77
26 24 22 21 18 16 11 8 11 12 15 13 8 4 5 8 13 20 22 26 29 33 35 37 37 33 34 33 37 37 36 36 36 37 41 41 44 45 49 53 61 66 72 77 84
29 25 23 21 19 16 12 13 13 15 17 9 4 2 5 10 15 19 21 26 27 32 34 37 38 38 37 36 38 38 37 34 35 39 43 45 44 49 53 60 64 69 75 81 92
29 26 23 22 20 17 16 15 16 15 14 7 3 3 6 12 16 20 23 26 29 29 33 35 36 37 37 38 36 36 38 38 38 42 44 48 46 55 58 62 68 74 79 83 89
31 27 24 20 20 21 17 17 15 11 7 6 4 4 6 11 16 21 23 25 29 29 31 36 38 38 39 39 39 39 42 39 40 42 46 51 50 58 62 65 70 75 82 87 97
33 29 26 22 20 23 18 15 13 11 6 4 4 6 7 11 16 20 21 23 27 30 32 35 38 39 39 40 40 44 44 44 39 43 51 53 56 60 62 67 70 77 84 95 95
32 29 26 23 21 23 20 15 12 12 8 4 3 4 8 12 17 19 20 22 27 31 35 36 36 40 40 41 41 45 45 44 42 44 53 56 60 59 62 71 74 81 95 99 102
34 32 27 24 22 22 20 15 12 11 9 7 5 6 9 14 17 17 20 23 28 32 34 38 37 40 42 44 42 47 49 48 48 49 51 55 59 61 70 79 81 91 101 104 108
36 34 29 25 23 22 20 16 13 10 7 8 7 8 11 15 19 21 22 25 29 31 34 37 40 40 43 43 45 49 52 50 47 49 52 57 61 69 75 81 87 97 103 107 108
37 35 31 26 25 22 20 19 18 13 10 9 10 12 14 17 21 23 24 27 30 32 35 37 40 41 43 44 46 51 54 54 52 56 56 58 61 71 76 83 89 99 106 109 107
38 36 34 29 27 25 22 18 18 13 12 12 13 15 16 20 23 23 26 28 31 33 35 37 40 41 44 48 50 52 55 57 55 60 60 62 63 68 76 86 94 102 110 115 115
37 35 35 34 31 28 24 21 19 16 16 16 16 17 17 20 20 23 27 28 30 33 35 38 41 43 45 50 53 53 55 57 57 62 63 66 69 77 84 91 97 104 111 113 116
39 36 37 37 33 31 27 23 20 19 16 15 14 13 17 20 20 23 26 30 32 33 37 40 43 45 46 51 54 54 55 59 58 61 66 68 74 80 84 92 99 109 112 114 118
41 41 40 40 38 35 32 28 22 20 15 14 14 16 22 23 24 27 27 29 33 35 38 42 44 46 47 52 56 56 58 61 62 66 71 75 75 81 88 93 104 111 113 116 123
44 42 41 41 40 36 33 29 24 20 18 14 16 20 19 22 24 26 28 31 34 38 39 42 43 47 47 53 57 57 59 62 66 69 74 74 80 81 89 101 108 113 113 118 120
46 43 43 42 39 35 32 26 23 23 22 21 20 21 23 29 30 30 34 39 39 39 41 43 44 46 48 53 56 60 60 65 68 71 75 75 81 91 100 103 109 115 118 119 127
47 44 41 38 36 33 30 26 26 24 24 24 26 28 31 31 31 33 37 41 44 45 42 44 45 48 50 55 59 63 64 66 70 73 74 75 82 89 94 101 111 115 120 123 130
50 46 42 39 37 35 32 29 29 29 27 26 28 30 30 30 33 36 39 42 44 47 42 42 45 48 51 56 60 64 66 67 72 73 72 74 83 88 92 105 110 118 124 126 133
53 49 45 43 41 39 37 36 34 31 28 28 29 30 28 30 33 36 40 42 45 41 40 42 44 47 51 56 60 62 64 70 71 73 72 76 83 88 94 104 115 119 129 129 132
Wind_Direction
171 183 176 195 169 152 147 160 161 162 183 203 216 300 306 334 333 335 335 328 335 334 331 327 318 317 312 295 299 293 290 281 275 288 288 285 285 291 301 305 302 307 307 305 298
168 177 202 159 135 147 153 153 152 165 186 151 137 317 345 341 339 333 338 339 351 354 349 344 338 327 318 311 304 310 334 331 315 323 348 344 338 341 352 346 325 336 342 340 339
208 199 164 141 145 142 144 151 168 149 141 119 108 6 350 351 347 341 349 352 11 14 14 15 12 8 351 358 360 47 45 46 61 48 54 32 28 20 0 353 352 344 335 331 333
165 156 148 148 144 141 142 145 112 88 111 104 31 1 2 359 346 357 356 4 13 13 20 28 26 30 33 54 44 37 35 27 31 26 21 16 7 3 358 353 350 345 340 339 333
158 155 155 158 156 155 138 118 105 84 138 98 47 15 9 12 17 6 23 19 20 24 27 29 33 36 36 39 32 31 24 15 16 19 8 2 359 357 351 353 348 345 342 336 335
163 161 163 167 173 168 146 150 117 104 127 82 45 39 41 36 39 35 25 26 26 24 27 32 33 31 30 32 29 23 17 12 2 0 352 355 352 349 346 344 344 343 342 339 338
172 167 165 174 166 163 162 150 134 134 109 94 82 84 71 75 60 44 39 33 27 30 27 27 29 27 23 17 8 3 2 1 354 351 350 347 343 346 344 339 343 339 337 337 337
178 173 169 173 169 178 183 173 148 131 114 115 106 101 95 66 47 31 30 23 26 28 28 28 30 25 21 10 358 347 345 344 346 350 345 340 339 340 336 338 338 339 339 337 335
179 177 176 183 188 196 196 170 156 129 133 132 113 87 79 43 25 22 18 20 19 21 26 25 22 23 20 16 14 8 359 353 348 344 341 338 338 335 336 338 339 337 337 339 337
182 173 176 185 187 186 181 161 139 136 146 155 147 82 41 7 5 10 9 5 12 13 17 19 18 17 14 13 10 5 360 355 352 347 344 339 343 342 342 341 339 337 339 338 338
182 176 177 187 185 179 171 154 141 147 157 161 164 280 337 343 349 356 2 0 3 8 9 14 14 13 10 7 5 3 359 352 347 346 347 347 346 343 343 342 339 337 337 336 335
180 177 180 186 181 173 164 152 146 147 157 167 194 273 324 337 341 352 357 1 2 2 3 8 9 9 8 8 3 357 356 351 343 346 351 349 344 345 344 340 340 339 335 336 333
180 179 186 187 179 170 168 163 160 161 167 190 229 285 339 341 344 347 349 352 357 356 356 359 1 2 5 3 2 356 351 351 348 345 345 350 348 342 342 343 342 337 333 335 335
183 187 189 188 181 173 178 181 179 185 190 229 289 286 315 338 349 350 350 348 352 353 354 353 355 357 359 358 357 354 351 348 343 343 347 348 348 343 344 343 338 337 336 336 336
188 191 195 186 182 183 185 188 198 214 210 225 280 351 344 343 342 349 347 349 349 350 350 352 350 353 353 356 351 350 349 349 345 342 347 347 347 343 341 343 341 338 338 339 338
191 194 193 190 192 185 182 185 196 204 211 225 274 313 338 345 346 341 344 343 342 345 347 349 349 348 351 354 347 344 347 346 344 344 345 344 345 346 345 346 344 337 339 338 338
195 194 189 196 197 195 196 194 205 198 224 239 261 303 319 335 341 344 339 339 338 340 342 344 347 345 348 349 345 342 345 345 344 344 345 343 344 343 343 345 341 341 342 344 338
199 196 195 201 202 205 205 215 213 217 239 247 284 303 310 319 331 329 332 333 337 339 342 341 344 343 345 347 345 343 343 344 347 344 341 343 337 340 344 345 341 343 341 345 347
201 203 205 206 206 208 211 209 209 219 234 255 282 295 307 319 323 323 324 327 333 336 338 339 341 341 342 344 345 345 342 343 344 346 344 340 344 344 344 345 344 341 344 342 343
200 206 208 209 209 212 216 218 213 226 241 255 278 291 310 322 322 321 324 325 330 331 334 338 339 341 341 342 345 345 345 343 343 344 347 347 344 346 349 346 344 345 344 344 346
204 205 208 211 212 213 216 216 220 233 243 261 276 293 312 318 317 321 324 327 330 332 331 336 336 340 341 341 346 345 346 344 343 342 342 345 347 348 348 346 345 344 347 345 350
209 207 211 211 212 217 222 227 230 233 237 255 276 290 303 305 308 313 321 328 329 329 331 332 334 337 341 341 347 344 347 344 341 340 340 341 344 348 348 345 347 348 345 348 353
210 207 211 214 215 220 224 229 227 231 239 263 288 293 299 306 311 316 322 328 330 332 332 332 334 338 339 341 346 344 344 344 343 344 341 342 344 348 348 349 350 349 349 349 351
209 212 213 216 219 219 223 226 232 238 247 265 283 286 299 308 309 310 318 323 329 329 330 332 334 338 337 341 342 343 344 345 345 345 345 345 347 349 352 353 353 352 350 349 350
210 212 214 211 213 217 220 226 231 243 256 270 279 287 288 303 307 310 314 318 324 328 329 331 333 336 338 341 342 344 345 346 345 346 345 348 347 349 353 352 353 352 353 357 357
210 212 211 212 213 217 220 226 235 246 259 271 280 287 298 303 306 311 313 316 318 323 327 328 331 335 338 339 341 344 347 346 346 345 345 348 347 349 349 349 351 352 352 354 354
210 212 215 216 220 221 225 233 241 251 259 267 278 290 293 301 308 312 315 318 319 323 326 327 330 334 336 338 339 342 344 346 346 345 345 345 348 351 351 349 351 353 351 354 355